Year,Month,Day,Hour,Minute,Value (Times are PST for windgust in km/hr)
2018,12,20,00,57,3.20
2018,12,20,00,58,3.20
2018,12,20,00,59,1.60
2018,12,20,01,00,3.20
2018,12,20,01,01,6.40
2018,12,20,01,02,3.20
2018,12,20,01,03,3.20
2018,12,20,01,04,3.20
2018,12,20,01,05,4.80
2018,12,20,01,06,3.20
2018,12,20,01,13,3.20
2018,12,20,01,15,6.40
2018,12,20,01,16,8.10
2018,12,20,01,18,4.80
2018,12,20,01,19,9.60
2018,12,20,01,21,3.20
2018,12,20,01,22,6.40
2018,12,20,01,23,4.80
2018,12,20,01,26,4.80
2018,12,20,01,27,3.20
2018,12,20,01,28,3.20
2018,12,20,01,29,4.80
2018,12,20,01,31,4.80
2018,12,20,01,32,3.20
2018,12,20,01,33,1.60
2018,12,20,01,34,8.10
2018,12,20,01,35,8.10
2018,12,20,01,36,6.40
2018,12,20,01,37,6.40
2018,12,20,01,38,4.80
2018,12,20,01,39,6.40
2018,12,20,01,40,11.30
2018,12,20,01,41,8.10
2018,12,20,01,42,4.80
2018,12,20,01,43,6.40
2018,12,20,01,44,9.60
2018,12,20,01,45,4.80
2018,12,20,01,46,11.30
2018,12,20,01,47,8.10
2018,12,20,01,48,8.10
2018,12,20,01,49,11.30
2018,12,20,01,50,11.30
2018,12,20,01,51,4.80
2018,12,20,01,52,8.10
2018,12,20,01,53,6.40
2018,12,20,01,54,9.60
2018,12,20,01,55,8.10
2018,12,20,01,56,3.20
2018,12,20,01,57,4.80
2018,12,20,01,58,6.40
2018,12,20,01,59,6.40
2018,12,20,02,00,3.20
2018,12,20,02,01,3.20
2018,12,20,02,02,4.80
2018,12,20,02,03,6.40
2018,12,20,02,04,4.80
2018,12,20,02,05,1.60
2018,12,20,02,06,3.20
2018,12,20,02,14,3.20
2018,12,20,02,15,8.10
2018,12,20,02,16,3.20
2018,12,20,02,17,3.20
2018,12,20,02,18,8.10
2018,12,20,02,19,6.40
2018,12,20,02,21,6.40
2018,12,20,02,22,6.40
2018,12,20,02,23,6.40
2018,12,20,02,24,4.80
2018,12,20,02,26,6.40
2018,12,20,02,27,8.10
2018,12,20,02,28,6.40
2018,12,20,02,29,6.40
2018,12,20,02,30,4.80
2018,12,20,02,31,4.80
2018,12,20,02,32,16.10
2018,12,20,02,33,4.80
2018,12,20,02,34,6.40
2018,12,20,02,35,4.80
2018,12,20,02,36,4.80
2018,12,20,02,37,9.60
2018,12,20,02,38,6.40
2018,12,20,02,39,9.60
2018,12,20,02,40,8.10
2018,12,20,02,41,4.80
2018,12,20,02,42,6.40
2018,12,20,02,43,6.40
2018,12,20,02,44,6.40
2018,12,20,02,45,4.80
2018,12,20,02,46,4.80
2018,12,20,02,47,4.80
2018,12,20,02,48,6.40
2018,12,20,02,49,1.60
2018,12,20,02,50,1.60
2018,12,20,02,52,1.60
2018,12,20,02,53,4.80
2018,12,20,02,54,3.20
2018,12,20,02,56,3.20
2018,12,20,02,57,9.60
2018,12,20,02,58,4.80
2018,12,20,02,59,4.80
2018,12,20,03,00,8.10
2018,12,20,03,01,8.10
2018,12,20,03,02,6.40
2018,12,20,03,03,3.20
2018,12,20,03,04,4.80
2018,12,20,03,05,6.40
2018,12,20,03,06,6.40
2018,12,20,03,07,6.40
2018,12,20,03,08,8.10
2018,12,20,03,09,6.40
2018,12,20,03,10,6.40
2018,12,20,03,11,8.10
2018,12,20,03,12,6.40
2018,12,20,03,13,3.20
2018,12,20,03,14,6.40
2018,12,20,03,15,6.40
2018,12,20,03,16,3.20
2018,12,20,03,17,3.20
2018,12,20,03,18,6.40
2018,12,20,03,19,4.80
2018,12,20,03,20,1.60
2018,12,20,03,21,3.20
2018,12,20,03,22,3.20
2018,12,20,03,23,1.60
2018,12,20,03,25,6.40
2018,12,20,03,26,3.20
2018,12,20,03,27,6.40
2018,12,20,03,28,8.10
2018,12,20,03,29,9.60
2018,12,20,03,30,4.80
2018,12,20,03,31,1.60
2018,12,20,03,32,3.20
2018,12,20,03,33,3.20
2018,12,20,03,34,3.20
2018,12,20,03,36,3.20
2018,12,20,03,47,3.20
2018,12,20,03,48,3.20
2018,12,20,03,49,3.20
2018,12,20,03,50,3.20
2018,12,20,03,51,3.20
2018,12,20,03,52,6.40
2018,12,20,03,53,3.20
2018,12,20,03,54,4.80
2018,12,20,03,55,4.80
2018,12,20,03,59,4.80
2018,12,20,04,00,4.80
2018,12,20,04,01,4.80
2018,12,20,04,03,6.40
2018,12,20,04,04,3.20
2018,12,20,04,05,1.60
2018,12,20,04,06,1.60
2018,12,20,04,07,3.20
2018,12,20,04,08,4.80
2018,12,20,04,33,4.80
2018,12,20,04,34,4.80
2018,12,20,04,35,3.20
2018,12,20,04,41,3.20
2018,12,20,04,42,1.60
2018,12,20,04,43,3.20
2018,12,20,04,44,1.60
2018,12,20,04,45,6.40
2018,12,20,04,46,4.80
2018,12,20,04,47,3.20
2018,12,20,04,48,1.60
2018,12,20,04,49,6.40
2018,12,20,04,50,6.40
2018,12,20,04,51,8.10
2018,12,20,04,52,9.60
2018,12,20,04,53,9.60
2018,12,20,04,54,9.60
2018,12,20,04,55,8.10
2018,12,20,04,56,8.10
2018,12,20,04,57,3.20
2018,12,20,04,58,4.80
2018,12,20,04,59,4.80
2018,12,20,05,00,4.80
2018,12,20,05,04,4.80
2018,12,20,05,05,6.40
2018,12,20,05,06,8.10
2018,12,20,05,07,6.40
2018,12,20,05,08,8.10
2018,12,20,05,09,4.80
2018,12,20,05,10,4.80
2018,12,20,05,11,14.50
2018,12,20,05,12,6.40
2018,12,20,05,13,8.10
2018,12,20,05,14,9.60
2018,12,20,05,15,4.80
2018,12,20,05,16,4.80
2018,12,20,05,17,4.80
2018,12,20,05,18,1.60
2018,12,20,05,19,1.60
2018,12,20,05,20,4.80
2018,12,20,05,21,8.10
2018,12,20,05,22,4.80
2018,12,20,05,23,4.80
2018,12,20,05,24,6.40
2018,12,20,05,25,4.80
2018,12,20,05,26,6.40
2018,12,20,05,27,6.40
2018,12,20,05,28,8.10
2018,12,20,05,29,4.80
2018,12,20,05,30,6.40
2018,12,20,05,31,6.40
2018,12,20,05,32,4.80
2018,12,20,05,33,4.80
2018,12,20,05,34,6.40
2018,12,20,05,35,6.40
2018,12,20,05,36,6.40
2018,12,20,05,37,11.30
2018,12,20,05,38,9.60
2018,12,20,05,39,8.10
2018,12,20,05,40,8.10
2018,12,20,05,41,6.40
2018,12,20,05,42,9.60
2018,12,20,05,43,6.40
2018,12,20,05,44,6.40
2018,12,20,05,45,11.30
2018,12,20,05,46,8.10
2018,12,20,05,47,6.40
2018,12,20,05,48,4.80
2018,12,20,05,49,8.10
2018,12,20,05,50,9.60
2018,12,20,05,51,3.20
2018,12,20,05,52,1.60
2018,12,20,05,53,1.60
2018,12,20,05,54,1.60
2018,12,20,05,56,6.40
2018,12,20,05,57,6.40
2018,12,20,05,58,6.40
2018,12,20,05,59,4.80
2018,12,20,06,00,4.80
2018,12,20,06,01,4.80
2018,12,20,06,02,3.20
2018,12,20,06,04,3.20
2018,12,20,06,05,3.20
2018,12,20,06,06,3.20
2018,12,20,06,07,1.60
2018,12,20,06,08,1.60
2018,12,20,06,09,8.10
2018,12,20,06,10,4.80
2018,12,20,06,11,6.40
2018,12,20,06,12,4.80
2018,12,20,06,13,4.80
2018,12,20,06,14,4.80
2018,12,20,06,18,4.80
2018,12,20,06,19,4.80
2018,12,20,06,20,4.80
2018,12,20,06,21,8.10
2018,12,20,06,22,8.10
2018,12,20,06,23,6.40
2018,12,20,06,24,4.80
2018,12,20,06,25,4.80
2018,12,20,06,26,4.80
2018,12,20,06,27,9.60
2018,12,20,06,28,4.80
2018,12,20,06,29,6.40
2018,12,20,06,30,4.80
2018,12,20,06,31,6.40
2018,12,20,06,32,3.20
2018,12,20,06,33,1.60
2018,12,20,06,34,8.10
2018,12,20,06,35,9.60
2018,12,20,06,36,8.10
2018,12,20,06,37,6.40
2018,12,20,06,38,4.80
2018,12,20,06,39,14.50
2018,12,20,06,40,8.10
2018,12,20,06,41,8.10
2018,12,20,06,42,4.80
2018,12,20,06,43,8.10
2018,12,20,06,44,9.60
2018,12,20,06,45,4.80
2018,12,20,06,46,3.20
2018,12,20,06,47,1.60
2018,12,20,06,49,3.20
2018,12,20,06,50,4.80
2018,12,20,06,51,6.40
2018,12,20,06,57,4.80
2018,12,20,06,58,4.80
2018,12,20,06,59,4.80
2018,12,20,07,00,9.60
2018,12,20,07,01,6.40
2018,12,20,07,02,3.20
2018,12,20,07,03,3.20
2018,12,20,07,04,6.40
2018,12,20,07,05,6.40
2018,12,20,07,06,3.20
2018,12,20,07,07,6.40
2018,12,20,07,08,6.40
2018,12,20,07,09,4.80
2018,12,20,07,10,1.60
2018,12,20,07,13,4.80
2018,12,20,07,14,3.20
2018,12,20,07,15,8.10
2018,12,20,07,16,8.10
2018,12,20,07,17,4.80
2018,12,20,07,18,4.80
2018,12,20,07,19,8.10
2018,12,20,07,20,8.10
2018,12,20,07,21,1.60
2018,12,20,07,22,1.60
2018,12,20,07,24,4.80
2018,12,20,07,27,1.60
2018,12,20,07,28,3.20
2018,12,20,07,34,1.60
2018,12,20,07,35,1.60
2018,12,20,07,43,4.80
2018,12,20,07,44,3.20
2018,12,20,07,46,1.60
2018,12,20,07,47,1.60
2018,12,20,07,54,1.60
2018,12,20,07,56,3.20
2018,12,20,07,58,1.60
2018,12,20,07,59,1.60
2018,12,20,08,41,4.80
2018,12,20,08,42,1.60
2018,12,20,08,43,4.80
2018,12,20,08,44,1.60
2018,12,20,08,45,1.60
2018,12,20,08,46,6.40
2018,12,20,08,47,4.80
2018,12,20,08,49,8.10
2018,12,20,08,50,11.30
2018,12,20,08,51,6.40
2018,12,20,08,52,6.40
2018,12,20,08,53,6.40
2018,12,20,08,54,9.60
2018,12,20,08,55,11.30
2018,12,20,08,56,6.40
2018,12,20,08,57,4.80
2018,12,20,08,58,4.80
2018,12,20,09,00,8.10
2018,12,20,09,01,8.10
2018,12,20,09,02,9.60
2018,12,20,09,03,6.40
2018,12,20,09,04,4.80
2018,12,20,09,06,4.80
2018,12,20,09,07,4.80
2018,12,20,09,10,14.50
2018,12,20,09,11,14.50
2018,12,20,09,12,3.20
2018,12,20,09,13,6.40
2018,12,20,09,14,6.40
2018,12,20,09,15,8.10
2018,12,20,09,16,3.20
2018,12,20,09,17,6.40
2018,12,20,09,18,4.80
2018,12,20,09,19,1.60
2018,12,20,09,21,6.40
2018,12,20,09,22,1.60
2018,12,20,09,23,3.20
2018,12,20,09,24,8.10
2018,12,20,09,25,8.10
2018,12,20,09,26,9.60
2018,12,20,09,27,9.60
2018,12,20,09,28,4.80
2018,12,20,09,29,4.80
2018,12,20,09,30,3.20
2018,12,20,09,31,8.10
2018,12,20,09,32,9.60
2018,12,20,09,33,6.40
2018,12,20,09,34,6.40
2018,12,20,09,35,9.60
2018,12,20,09,36,8.10
2018,12,20,09,37,11.30
2018,12,20,09,38,9.60
2018,12,20,09,39,4.80
2018,12,20,09,40,11.30
2018,12,20,09,41,9.60
2018,12,20,09,42,9.60
2018,12,20,09,43,17.70
2018,12,20,09,44,16.10
2018,12,20,09,45,16.10
2018,12,20,09,46,4.80
2018,12,20,09,47,9.60
2018,12,20,09,48,3.20
2018,12,20,09,49,6.40
2018,12,20,09,50,11.30
2018,12,20,09,51,14.50
2018,12,20,09,52,20.90
2018,12,20,09,53,16.10
2018,12,20,09,54,11.30
2018,12,20,09,55,4.80
2018,12,20,09,56,9.60
2018,12,20,09,57,8.10
2018,12,20,09,58,11.30
2018,12,20,09,59,8.10
2018,12,20,10,00,8.10
2018,12,20,10,01,8.10
2018,12,20,10,02,16.10
2018,12,20,10,03,11.30
2018,12,20,10,04,11.30
2018,12,20,10,05,11.30
2018,12,20,10,06,8.10
2018,12,20,10,07,11.30
2018,12,20,10,08,16.10
2018,12,20,10,09,9.60
2018,12,20,10,10,11.30
2018,12,20,10,11,9.60
2018,12,20,10,12,8.10
2018,12,20,10,13,6.40
2018,12,20,10,14,9.60
2018,12,20,10,15,8.10
2018,12,20,10,16,11.30
2018,12,20,10,17,6.40
2018,12,20,10,18,3.20
2018,12,20,10,19,6.40
2018,12,20,10,20,3.20
2018,12,20,10,21,14.50
2018,12,20,10,22,12.90
2018,12,20,10,23,1.60
2018,12,20,10,24,8.10
2018,12,20,10,25,6.40
2018,12,20,10,26,3.20
2018,12,20,10,27,3.20
2018,12,20,10,28,3.20
2018,12,20,10,31,4.80
2018,12,20,10,32,8.10
2018,12,20,10,33,3.20
2018,12,20,10,34,6.40
2018,12,20,10,35,6.40
2018,12,20,10,36,3.20
2018,12,20,10,37,6.40
2018,12,20,10,38,11.30
2018,12,20,10,39,24.20
2018,12,20,10,40,20.90
2018,12,20,10,41,16.10
2018,12,20,10,42,20.90
2018,12,20,10,43,17.70
2018,12,20,10,44,9.60
2018,12,20,10,45,19.30
2018,12,20,10,46,20.90
2018,12,20,10,47,16.10
2018,12,20,10,48,9.60
2018,12,20,10,49,8.10
2018,12,20,10,50,17.70
2018,12,20,10,51,35.40
2018,12,20,10,52,20.90
2018,12,20,10,53,25.70
2018,12,20,10,54,24.20
2018,12,20,10,55,20.90
2018,12,20,10,56,19.30
2018,12,20,10,57,27.40
2018,12,20,10,58,25.70
2018,12,20,10,59,32.20
2018,12,20,11,00,45.10
2018,12,20,11,01,20.90
2018,12,20,11,02,19.30
2018,12,20,11,03,40.20
2018,12,20,11,04,33.80
2018,12,20,11,05,33.80
2018,12,20,11,06,20.90
2018,12,20,11,07,32.20
2018,12,20,11,08,32.20
2018,12,20,11,09,29.00
2018,12,20,11,10,32.20
2018,12,20,11,11,25.70
2018,12,20,11,12,30.60
2018,12,20,11,13,25.70
2018,12,20,11,14,25.70
2018,12,20,11,15,27.40
2018,12,20,11,16,32.20
2018,12,20,11,17,40.20
2018,12,20,11,18,35.40
2018,12,20,11,19,22.50
2018,12,20,11,20,30.60
2018,12,20,11,21,35.40
2018,12,20,11,22,41.80
2018,12,20,11,23,33.80
2018,12,20,11,24,51.50
2018,12,20,11,25,32.20
2018,12,20,11,26,30.60
2018,12,20,11,27,38.60
2018,12,20,11,28,38.60
2018,12,20,11,29,38.60
2018,12,20,11,30,37.00
2018,12,20,11,31,45.10
2018,12,20,11,32,41.80
2018,12,20,11,33,41.80
2018,12,20,11,34,35.40
2018,12,20,11,35,46.70
2018,12,20,11,36,38.60
2018,12,20,11,37,46.70
2018,12,20,11,38,22.50
2018,12,20,11,39,25.70
2018,12,20,11,40,32.20
2018,12,20,11,41,19.30
2018,12,20,11,42,22.50
2018,12,20,11,43,17.70
2018,12,20,11,44,33.80
2018,12,20,11,45,38.60
2018,12,20,11,46,25.70
2018,12,20,11,47,35.40
2018,12,20,11,48,32.20
2018,12,20,11,49,35.40
2018,12,20,11,50,29.00
2018,12,20,11,51,33.80
2018,12,20,11,52,49.90
2018,12,20,11,53,37.00
2018,12,20,11,54,56.30
2018,12,20,11,55,48.30
2018,12,20,11,56,43.50
2018,12,20,11,57,51.50
2018,12,20,11,58,48.30
2018,12,20,11,59,40.20
2018,12,20,12,00,37.00
2018,12,20,12,01,20.90
2018,12,20,12,02,35.40
2018,12,20,12,03,48.30
2018,12,20,12,04,24.20
2018,12,20,12,05,43.50
2018,12,20,12,06,33.80
2018,12,20,12,07,38.60
2018,12,20,12,08,33.80
2018,12,20,12,09,30.60
2018,12,20,12,10,33.80
2018,12,20,12,11,51.50
2018,12,20,12,12,51.50
2018,12,20,12,13,64.40
2018,12,20,12,14,54.70
2018,12,20,12,15,40.20
2018,12,20,12,16,32.20
2018,12,20,12,17,24.20
2018,12,20,12,18,33.80
2018,12,20,12,19,25.70
2018,12,20,12,20,25.70
2018,12,20,12,21,29.00
2018,12,20,12,22,30.60
2018,12,20,12,23,30.60
2018,12,20,12,24,16.10
2018,12,20,12,25,16.10
2018,12,20,12,26,20.90
2018,12,20,12,27,22.50
2018,12,20,12,28,22.50
2018,12,20,12,29,35.40
2018,12,20,12,30,38.60
2018,12,20,12,31,40.20
2018,12,20,12,32,40.20
2018,12,20,12,33,33.80
2018,12,20,12,34,43.50
2018,12,20,12,35,30.60
2018,12,20,12,36,24.20
2018,12,20,12,37,27.40
2018,12,20,12,38,40.20
2018,12,20,12,39,30.60
2018,12,20,12,40,62.70
2018,12,20,12,41,45.10
2018,12,20,12,42,38.60
2018,12,20,12,43,38.60
2018,12,20,12,44,38.60
2018,12,20,12,45,27.40
2018,12,20,12,46,61.20
2018,12,20,12,47,33.80
2018,12,20,12,48,37.00
2018,12,20,12,49,24.20
2018,12,20,12,50,32.20
2018,12,20,12,51,35.40
2018,12,20,12,52,27.40
2018,12,20,12,53,27.40
2018,12,20,12,54,35.40
2018,12,20,12,55,20.90
2018,12,20,12,56,27.40
2018,12,20,12,57,57.90
2018,12,20,12,58,46.70
2018,12,20,12,59,33.80
2018,12,20,13,00,51.50
2018,12,20,13,01,51.50
2018,12,20,13,02,53.10
2018,12,20,13,03,33.80
2018,12,20,13,04,41.80
2018,12,20,13,05,37.00
2018,12,20,13,06,27.40
2018,12,20,13,07,27.40
2018,12,20,13,08,35.40
2018,12,20,13,09,37.00
2018,12,20,13,10,38.60
2018,12,20,13,11,41.80
2018,12,20,13,12,35.40
2018,12,20,13,13,40.20
2018,12,20,13,14,20.90
2018,12,20,13,15,51.50
2018,12,20,13,16,29.00
2018,12,20,13,17,53.10
2018,12,20,13,18,41.80
2018,12,20,13,19,37.00
2018,12,20,13,20,43.50
2018,12,20,13,21,32.20
2018,12,20,13,22,56.30
2018,12,20,13,23,69.20
2018,12,20,13,24,33.80
2018,12,20,13,25,48.30
2018,12,20,13,26,41.80
2018,12,20,13,27,37.00
2018,12,20,13,28,32.20
2018,12,20,13,29,48.30
2018,12,20,13,30,35.40
2018,12,20,13,31,53.10
2018,12,20,13,32,40.20
2018,12,20,13,33,40.20
2018,12,20,13,34,30.60
2018,12,20,13,35,51.50
2018,12,20,13,36,32.20
2018,12,20,13,37,35.40
2018,12,20,13,38,53.10
2018,12,20,13,39,32.20
2018,12,20,13,40,40.20
2018,12,20,13,41,29.00
2018,12,20,13,42,64.40
2018,12,20,13,43,54.70
2018,12,20,13,44,32.20
2018,12,20,13,45,32.20
2018,12,20,13,46,33.80
2018,12,20,13,47,53.10
2018,12,20,13,48,56.30
2018,12,20,13,49,45.10
2018,12,20,13,50,43.50
2018,12,20,13,51,25.70
2018,12,20,13,52,54.70
2018,12,20,13,53,33.80
2018,12,20,13,54,38.60
2018,12,20,13,55,49.90
2018,12,20,13,56,43.50
2018,12,20,13,57,43.50
2018,12,20,13,58,48.30
2018,12,20,13,59,29.00
2018,12,20,14,00,37.00
2018,12,20,14,01,46.70
2018,12,20,14,02,46.70
2018,12,20,14,03,48.30
2018,12,20,14,04,30.60
2018,12,20,14,05,27.40
2018,12,20,14,06,27.40
2018,12,20,14,07,43.50
2018,12,20,14,08,51.50
2018,12,20,14,09,30.60
2018,12,20,14,10,33.80
2018,12,20,14,11,53.10
2018,12,20,14,12,48.30
2018,12,20,14,13,35.40
2018,12,20,14,14,38.60
2018,12,20,14,15,38.60
2018,12,20,14,16,54.70
2018,12,20,14,17,51.50
2018,12,20,14,18,25.70
2018,12,20,14,19,53.10
2018,12,20,14,20,38.60
2018,12,20,14,21,20.90
2018,12,20,14,22,27.40
2018,12,20,14,23,25.70
2018,12,20,14,24,43.50
2018,12,20,14,25,43.50
2018,12,20,14,26,38.60
2018,12,20,14,27,40.20
2018,12,20,14,28,45.10
2018,12,20,14,29,32.20
2018,12,20,14,30,33.80
2018,12,20,14,31,17.70
2018,12,20,14,32,30.60
2018,12,20,14,33,38.60
2018,12,20,14,34,33.80
2018,12,20,14,35,29.00
2018,12,20,14,36,29.00
2018,12,20,14,37,24.20
2018,12,20,14,38,22.50
2018,12,20,14,39,41.80
2018,12,20,14,40,43.50
2018,12,20,14,41,17.70
2018,12,20,14,42,29.00
2018,12,20,14,43,33.80
2018,12,20,14,44,20.90
2018,12,20,14,45,27.40
2018,12,20,14,46,33.80
2018,12,20,14,47,32.20
2018,12,20,14,48,35.40
2018,12,20,14,49,35.40
2018,12,20,14,50,43.50
2018,12,20,14,51,22.50
2018,12,20,14,52,24.20
2018,12,20,14,53,20.90
2018,12,20,14,54,22.50
2018,12,20,14,55,35.40
2018,12,20,14,56,24.20
2018,12,20,14,57,20.90
2018,12,20,14,58,19.30
2018,12,20,14,59,37.00
2018,12,20,15,00,32.20
2018,12,20,15,01,27.40
2018,12,20,15,02,37.00
2018,12,20,15,03,24.20
2018,12,20,15,04,17.70
2018,12,20,15,05,19.30
2018,12,20,15,06,29.00
2018,12,20,15,07,45.10
2018,12,20,15,08,33.80
2018,12,20,15,09,22.50
2018,12,20,15,10,25.70
2018,12,20,15,11,19.30
2018,12,20,15,12,35.40
2018,12,20,15,13,38.60
2018,12,20,15,14,32.20
2018,12,20,15,15,30.60
2018,12,20,15,16,25.70
2018,12,20,15,17,25.70
2018,12,20,15,18,38.60
2018,12,20,15,19,37.00
2018,12,20,15,20,25.70
2018,12,20,15,21,37.00
2018,12,20,15,22,32.20
2018,12,20,15,23,30.60
2018,12,20,15,24,35.40
2018,12,20,15,25,32.20
2018,12,20,15,26,17.70
2018,12,20,15,27,38.60
2018,12,20,15,28,59.50
2018,12,20,15,29,38.60
2018,12,20,15,30,32.20
2018,12,20,15,31,33.80
2018,12,20,15,32,48.30
2018,12,20,15,33,37.00
2018,12,20,15,34,38.60
2018,12,20,15,35,27.40
2018,12,20,15,36,32.20
2018,12,20,15,37,29.00
2018,12,20,15,38,29.00
2018,12,20,15,39,32.20
2018,12,20,15,40,38.60
2018,12,20,15,41,37.00
2018,12,20,15,42,43.50
2018,12,20,15,43,37.00
2018,12,20,15,44,30.60
2018,12,20,15,45,27.40
2018,12,20,15,46,49.90
2018,12,20,15,47,30.60
2018,12,20,15,48,30.60
2018,12,20,15,49,37.00
2018,12,20,15,50,30.60
2018,12,20,15,51,37.00
2018,12,20,15,52,51.50
2018,12,20,15,53,49.90
2018,12,20,15,54,33.80
2018,12,20,15,55,35.40
2018,12,20,15,56,48.30
2018,12,20,15,57,38.60
2018,12,20,15,58,46.70
2018,12,20,15,59,35.40
2018,12,20,16,00,54.70
2018,12,20,16,01,59.50
2018,12,20,16,02,40.20
2018,12,20,16,03,45.10
2018,12,20,16,04,20.90
2018,12,20,16,05,19.30
2018,12,20,16,06,19.30
2018,12,20,16,07,22.50
2018,12,20,16,08,25.70
2018,12,20,16,09,11.30
2018,12,20,16,10,9.60
2018,12,20,16,11,20.90
2018,12,20,16,12,24.20
2018,12,20,16,13,25.70
2018,12,20,16,14,37.00
2018,12,20,16,15,32.20
2018,12,20,16,16,20.90
2018,12,20,16,17,16.10
2018,12,20,16,18,12.90
2018,12,20,16,19,11.30
2018,12,20,16,20,27.40
2018,12,20,16,21,25.70
2018,12,20,16,22,9.60
2018,12,20,16,23,6.40
2018,12,20,16,24,22.50
2018,12,20,16,25,25.70
2018,12,20,16,26,20.90
2018,12,20,16,27,14.50
2018,12,20,16,28,8.10
2018,12,20,16,29,6.40
2018,12,20,16,30,6.40
2018,12,20,16,31,4.80
2018,12,20,16,32,6.40
2018,12,20,16,33,19.30
2018,12,20,16,34,20.90
2018,12,20,16,35,4.80
2018,12,20,16,36,6.40
2018,12,20,16,37,6.40
2018,12,20,16,38,6.40
2018,12,20,16,39,9.60
2018,12,20,16,40,6.40
2018,12,20,16,41,6.40
2018,12,20,16,42,22.50
2018,12,20,16,43,9.60
2018,12,20,16,44,19.30
2018,12,20,16,45,9.60
2018,12,20,16,46,11.30
2018,12,20,16,47,8.10
2018,12,20,16,48,8.10
2018,12,20,16,49,16.10
2018,12,20,16,50,16.10
2018,12,20,16,51,33.80
2018,12,20,16,52,29.00
2018,12,20,16,53,14.50
2018,12,20,16,54,11.30
2018,12,20,16,55,16.10
2018,12,20,16,56,8.10
2018,12,20,16,57,8.10
2018,12,20,16,58,22.50
2018,12,20,16,59,25.70
2018,12,20,17,00,20.90
2018,12,20,17,01,14.50
2018,12,20,17,02,9.60
2018,12,20,17,03,16.10
2018,12,20,17,04,24.20
2018,12,20,17,05,17.70
2018,12,20,17,06,14.50
2018,12,20,17,07,8.10
2018,12,20,17,08,22.50
2018,12,20,17,09,17.70
2018,12,20,17,10,8.10
2018,12,20,17,11,14.50
2018,12,20,17,12,9.60
2018,12,20,17,13,9.60
2018,12,20,17,14,4.80
2018,12,20,17,15,4.80
2018,12,20,17,16,9.60
2018,12,20,17,17,4.80
2018,12,20,17,18,8.10
2018,12,20,17,19,11.30
2018,12,20,17,20,9.60
2018,12,20,17,21,8.10
2018,12,20,17,22,4.80
2018,12,20,17,23,3.20
2018,12,20,17,24,3.20
2018,12,20,17,25,4.80
2018,12,20,17,27,8.10
2018,12,20,17,28,4.80
2018,12,20,17,29,3.20
2018,12,20,17,31,6.40
2018,12,20,17,32,1.60
2018,12,20,17,34,1.60
2018,12,20,17,35,3.20
2018,12,20,17,36,12.90
2018,12,20,17,37,11.30
2018,12,20,17,38,4.80
2018,12,20,17,40,4.80
2018,12,20,17,41,4.80
2018,12,20,17,42,3.20
2018,12,20,17,43,3.20
2018,12,20,17,46,8.10
2018,12,20,17,47,6.40
2018,12,20,17,49,3.20
2018,12,20,17,50,1.60
2018,12,20,17,51,3.20
2018,12,20,17,52,9.60
2018,12,20,17,53,3.20
2018,12,20,17,54,8.10
2018,12,20,17,55,3.20
2018,12,20,17,56,4.80
2018,12,20,17,57,27.40
2018,12,20,17,58,16.10
2018,12,20,18,00,4.80
2018,12,20,18,01,12.90
2018,12,20,18,02,17.70
2018,12,20,18,03,8.10
2018,12,20,18,04,24.20
2018,12,20,18,05,9.60
2018,12,20,18,06,6.40
2018,12,20,18,07,6.40
2018,12,20,18,09,6.40
2018,12,20,18,10,16.10
2018,12,20,18,11,17.70
2018,12,20,18,12,16.10
2018,12,20,18,13,6.40
2018,12,20,18,14,4.80
2018,12,20,18,15,3.20
2018,12,20,18,16,8.10
2018,12,20,18,17,6.40
2018,12,20,18,18,8.10
2018,12,20,18,19,14.50
2018,12,20,18,20,29.00
2018,12,20,18,21,16.10
2018,12,20,18,22,8.10
2018,12,20,18,23,9.60
2018,12,20,18,24,11.30
2018,12,20,18,25,22.50
2018,12,20,18,26,8.10
2018,12,20,18,27,3.20
2018,12,20,18,28,3.20
2018,12,20,18,29,3.20
2018,12,20,18,30,3.20
2018,12,20,18,31,3.20
2018,12,20,18,32,3.20
2018,12,20,18,33,3.20
2018,12,20,18,34,16.10
2018,12,20,18,35,4.80
2018,12,20,18,36,19.30
2018,12,20,18,37,27.40
2018,12,20,18,38,12.90
2018,12,20,18,39,14.50
2018,12,20,18,40,16.10
2018,12,20,18,41,17.70
2018,12,20,18,42,14.50
2018,12,20,18,43,14.50
2018,12,20,18,44,14.50
2018,12,20,18,45,16.10
2018,12,20,18,46,9.60
2018,12,20,18,47,17.70
2018,12,20,18,48,19.30
2018,12,20,18,49,8.10
2018,12,20,18,50,24.20
2018,12,20,18,51,16.10
2018,12,20,18,52,9.60
2018,12,20,18,53,19.30
2018,12,20,18,54,19.30
2018,12,20,18,55,17.70
2018,12,20,18,56,6.40
2018,12,20,18,57,14.50
2018,12,20,18,58,11.30
2018,12,20,18,59,11.30
2018,12,20,19,00,14.50
2018,12,20,19,01,22.50
2018,12,20,19,02,17.70
2018,12,20,19,03,19.30
2018,12,20,19,04,20.90
2018,12,20,19,05,24.20
2018,12,20,19,06,14.50
2018,12,20,19,07,32.20
2018,12,20,19,08,29.00
2018,12,20,19,09,11.30
2018,12,20,19,10,8.10
2018,12,20,19,11,11.30
2018,12,20,19,12,6.40
2018,12,20,19,13,9.60
2018,12,20,19,14,17.70
2018,12,20,19,15,8.10
2018,12,20,19,16,8.10
2018,12,20,19,17,12.90
2018,12,20,19,18,8.10
2018,12,20,19,19,37.00
2018,12,20,19,20,30.60
2018,12,20,19,21,16.10
2018,12,20,19,22,14.50
2018,12,20,19,23,8.10
2018,12,20,19,24,14.50
2018,12,20,19,25,9.60
2018,12,20,19,26,17.70
2018,12,20,19,27,6.40
2018,12,20,19,28,11.30
2018,12,20,19,29,11.30
2018,12,20,19,30,8.10
2018,12,20,19,31,8.10
2018,12,20,19,32,8.10
2018,12,20,19,33,8.10
2018,12,20,19,34,8.10
2018,12,20,19,35,8.10
2018,12,20,19,36,8.10
2018,12,20,19,37,8.10
2018,12,20,19,38,8.10
2018,12,20,19,39,8.10
